Wetbulb
58.42 54.81 50.88 52.39 56.22 57.46 58.86 59.78 57.84 54.98 55.08 55.17 55.81 59.39 62.31 67.43 68.23 67.17 67.72 70.42 72.21 74.16 73.71 73.21 73.01 72.94 72.65 72.03 71.43 70.43 69.18 68.70
53.25 52.27 54.93 55.14 57.61 58.71 58.62 57.79 55.74 54.74 54.43 57.17 59.88 60.75 63.40 67.86 68.54 66.78 67.34 69.90 71.80 73.84 73.76 73.49 73.29 73.22 72.92 72.35 71.75 70.77 69.54 69.39
52.48 52.85 55.43 57.54 59.12 58.89 57.25 56.77 56.86 54.76 54.47 56.10 59.45 62.29 64.23 67.61 68.46 67.32 67.39 68.85 70.97 73.71 74.03 73.81 73.84 73.59 73.09 72.52 72.15 71.78 70.70 70.27
49.01 51.49 55.26 57.03 58.96 57.30 56.77 56.21 56.66 53.74 54.38 57.05 60.20 61.91 64.30 67.48 68.68 68.91 68.13 68.66 70.93 73.24 73.93 73.76 73.69 73.51 73.11 72.79 72.62 72.47 71.83 71.73
50.30 50.45 52.33 55.11 58.03 56.40 55.91 56.09 55.55 55.98 54.26 58.24 59.83 61.64 64.22 67.23 69.01 68.21 69.20 68.84 70.81 72.14 73.57 73.85 73.41 73.14 73.33 72.97 72.85 72.80 72.21 71.92
50.99 49.05 50.10 55.65 56.52 56.62 56.83 56.06 57.79 57.45 55.19 57.43 61.47 61.56 65.06 67.28 67.52 67.25 68.00 69.24 69.90 71.81 72.52 72.38 72.41 73.58 73.54 73.34 73.08 72.81 72.59 72.17
49.01 49.59 51.49 55.78 55.10 57.05 58.35 57.98 57.71 58.76 59.43 60.42 60.65 60.99 63.54 65.27 65.67 66.21 66.72 68.02 69.32 69.98 71.47 71.92 71.70 72.01 73.38 72.96 72.66 72.42 71.66 71.13
53.76 53.82 53.19 54.67 55.19 56.01 56.33 56.69 57.27 58.56 61.05 60.37 60.04 60.98 61.22 63.05 63.59 64.94 65.88 66.97 68.14 69.29 70.67 71.27 70.75 72.14 72.38 71.71 71.11 70.97 70.36 69.46
54.58 55.53 55.68 55.07 55.42 57.37 55.61 54.39 56.95 57.02 59.07 61.20 61.58 61.09 60.68 61.91 63.31 64.04 65.94 67.06 67.76 69.18 70.36 70.68 70.23 70.78 70.51 70.26 69.50 69.49 69.46 68.95
55.95 56.65 55.80 54.54 56.73 55.28 56.54 56.83 59.70 60.06 60.86 60.77 60.91 60.86 60.40 60.83 62.25 63.83 64.72 66.18 67.60 68.58 69.10 70.09 69.80 68.85 68.15 67.40 67.35 66.51 66.95 67.72
56.80 56.77 56.66 56.88 54.96 55.00 55.71 58.38 59.54 60.26 60.60 60.41 60.76 60.81 61.35 61.48 62.59 63.39 63.44 64.80 65.69 67.84 68.76 68.79 67.77 66.81 65.92 65.41 65.53 66.31 66.43 66.64
55.51 55.59 55.75 53.81 53.76 54.95 55.99 58.99 58.35 58.55 58.65 58.96 59.42 60.22 61.02 61.02 61.16 62.36 63.41 63.01 64.77 66.48 67.89 66.94 66.16 66.08 65.50 65.98 65.85 66.04 65.78 66.01
52.45 53.78 53.21 53.52 48.99 50.24 54.79 56.45 55.55 56.41 57.36 58.39 59.19 60.03 59.68 61.85 62.38 63.22 63.01 62.16 63.39 65.55 66.02 65.69 65.40 65.67 65.91 65.36 65.60 65.51 65.84 66.67
48.85 50.03 50.57 49.79 44.97 51.27 54.24 54.39 54.34 55.15 56.09 56.72 58.61 59.78 61.10 62.17 63.50 63.48 61.65 60.99 62.96 63.48 64.29 65.05 65.36 65.79 65.16 65.46 65.50 65.61 65.76 66.10
45.20 49.47 49.16 48.97 46.91 50.99 53.75 53.01 52.87 54.08 55.09 55.97 57.31 59.38 62.36 61.74 62.16 60.92 60.73 61.85 62.20 63.31 63.46 64.61 65.69 65.03 65.33 65.95 65.16 65.64 65.98 66.05
43.07 47.10 47.94 46.86 46.89 50.02 51.68 52.56 52.90 54.04 55.07 55.98 56.94 58.54 61.35 60.89 60.28 60.48 61.11 62.93 63.67 63.40 64.88 65.36 64.73 64.38 64.70 64.97 64.93 65.75 65.93 66.12
46.04 47.43 45.93 46.12 46.53 49.19 51.94 52.58 52.54 53.42 54.68 56.18 57.53 59.77 58.68 58.00 59.08 60.14 61.16 61.99 63.23 63.23 64.76 64.09 62.94 62.77 63.60 63.02 65.12 65.40 66.17 66.48
45.67 46.99 46.36 46.21 46.05 49.45 50.97 51.72 52.57 53.11 54.79 55.93 57.08 58.18 57.45 56.84 58.96 60.01 60.86 61.84 62.81 63.95 64.00 64.21 64.00 64.30 65.72 65.83 66.20 65.98 66.15 66.33
42.08 45.44 46.98 46.04 44.47 47.01 50.52 52.18 53.13 54.01 55.69 56.26 56.98 57.82 57.04 56.97 58.63 60.10 60.55 61.62 63.09 63.79 63.98 64.33 64.78 64.98 65.27 65.65 65.30 64.64 65.69 65.96
42.68 41.39 38.79 45.94 38.17 46.00 48.52 48.90 51.02 53.25 55.15 56.43 56.75 57.11 57.49 57.63 58.42 59.60 60.65 62.88 63.36 63.73 64.02 64.26 65.21 64.64 65.13 64.16 62.84 64.73 65.10 65.46
MSLP
1012.48 1011.93 1010.54 1009.38 1008.93 1008.38 1008.41 1008.23 1008.04 1007.74 1007.79 1007.54 1007.12 1007.45 1007.40 1007.35 1008.26 1008.80 1009.34 1009.71 1010.17 1010.82 1011.41 1011.82 1012.20 1012.51 1012.99 1013.31 1013.62 1013.87 1014.07 1014.29
1012.26 1010.96 1010.36 1009.48 1008.56 1008.40 1007.82 1007.78 1007.76 1007.65 1007.26 1007.36 1006.85 1006.90 1007.02 1007.42 1008.18 1008.59 1008.97 1009.42 1009.81 1010.27 1010.87 1011.45 1011.91 1012.28 1012.60 1012.95 1013.33 1013.63 1013.88 1014.11
1011.47 1010.56 1009.87 1009.12 1008.47 1008.45 1007.86 1007.66 1007.33 1007.50 1007.05 1006.97 1006.71 1006.89 1007.16 1007.65 1008.10 1008.17 1008.64 1009.04 1009.49 1010.06 1010.54 1011.13 1011.67 1012.15 1012.50 1012.82 1013.22 1013.53 1013.72 1013.92
1010.48 1009.89 1009.18 1008.49 1008.01 1007.94 1007.60 1007.41 1007.29 1007.35 1007.09 1006.65 1006.62 1006.96 1007.17 1007.49 1007.74 1008.04 1008.29 1008.71 1009.25 1009.94 1010.27 1010.75 1011.33 1011.88 1012.37 1012.68 1013.02 1013.36 1013.50 1013.69
1010.35 1009.51 1008.97 1007.99 1007.57 1007.43 1006.98 1007.12 1007.21 1007.25 1006.90 1006.50 1006.56 1007.06 1007.72 1007.78 1007.78 1007.98 1008.34 1008.76 1009.04 1009.49 1010.09 1010.60 1011.05 1011.49 1011.96 1012.40 1012.79 1013.08 1013.25 1013.47
1010.04 1009.09 1008.05 1007.50 1007.40 1007.18 1007.03 1007.06 1007.34 1007.31 1006.63 1006.32 1006.48 1007.19 1007.49 1007.92 1007.97 1008.04 1008.33 1008.41 1008.80 1009.18 1009.70 1010.24 1010.73 1011.35 1011.69 1012.02 1012.41 1012.71 1013.01 1013.32
1009.17 1008.67 1007.35 1007.77 1007.42 1007.55 1007.40 1007.12 1007.12 1006.89 1006.52 1006.48 1006.87 1007.43 1007.52 1007.69 1007.92 1007.93 1008.00 1008.20 1008.57 1009.05 1009.15 1009.61 1010.33 1010.92 1011.54 1011.83 1012.13 1012.44 1012.71 1013.01
1007.86 1007.75 1007.63 1007.95 1007.87 1008.03 1007.77 1007.14 1006.23 1006.48 1006.34 1006.66 1006.87 1007.03 1006.90 1007.04 1006.74 1006.85 1007.24 1007.36 1008.00 1008.63 1009.26 1009.74 1010.18 1010.79 1011.07 1011.41 1011.69 1011.98 1012.29 1012.61
1007.71 1007.59 1008.02 1007.74 1007.60 1007.79 1007.51 1006.44 1005.65 1005.91 1005.59 1005.78 1006.02 1006.34 1006.26 1006.07 1005.79 1005.63 1006.38 1007.28 1007.64 1008.46 1009.08 1009.65 1009.96 1010.49 1010.97 1011.24 1011.58 1011.95 1012.23 1012.49
1007.28 1007.96 1008.06 1007.72 1007.56 1007.17 1007.38 1005.76 1005.41 1005.54 1005.70 1005.44 1005.20 1005.39 1005.40 1005.26 1004.99 1005.32 1005.88 1006.81 1007.63 1007.83 1008.43 1009.18 1009.87 1010.14 1010.59 1011.01 1011.39 1011.58 1011.82 1012.23
1007.84 1007.87 1007.92 1008.01 1007.41 1006.89 1006.24 1004.93 1005.23 1005.11 1004.86 1004.68 1004.52 1004.44 1004.61 1004.48 1004.42 1004.79 1005.20 1006.06 1007.27 1007.94 1008.11 1008.80 1009.51 1010.01 1010.48 1010.82 1011.07 1011.13 1011.53 1011.78
1007.73 1007.66 1007.39 1007.39 1006.35 1006.90 1005.64 1004.42 1004.68 1004.49 1004.06 1003.79 1003.60 1003.44 1003.69 1004.00 1003.85 1004.32 1004.65 1005.48 1006.61 1007.51 1007.90 1008.53 1009.14 1009.86 1010.28 1010.65 1010.67 1010.97 1011.16 1011.47
1007.53 1007.29 1007.07 1006.95 1005.63 1005.63 1004.62 1004.19 1004.30 1003.77 1003.36 1003.01 1002.72 1002.58 1002.91 1002.70 1003.07 1003.11 1003.88 1005.01 1005.77 1007.18 1007.87 1008.29 1008.93 1009.64 1010.04 1010.23 1010.56 1010.80 1010.98 1011.39
1006.38 1006.59 1006.46 1006.94 1003.33 1004.36 1003.84 1003.92 1003.52 1003.26 1002.85 1002.48 1002.08 1001.90 1001.81 1001.91 1002.40 1002.91 1003.87 1004.84 1005.67 1006.35 1007.60 1008.04 1008.67 1009.37 1009.67 1009.98 1010.35 1010.64 1010.83 1010.93
1005.91 1005.97 1005.76 1005.89 1003.29 1003.67 1003.79 1003.67 1003.26 1002.74 1002.21 1001.83 1001.47 1001.11 1000.98 1001.32 1001.80 1002.62 1003.31 1004.09 1005.01 1006.17 1007.31 1007.80 1008.46 1009.00 1009.48 1009.91 1010.23 1010.37 1010.46 1010.35
1005.35 1005.33 1005.01 1004.66 1003.25 1003.36 1003.55 1002.91 1002.54 1002.21 1001.63 1001.39 1000.98 1000.28 1000.59 1001.15 1001.63 1002.34 1002.96 1003.59 1004.34 1005.31 1006.45 1007.59 1008.22 1008.91 1009.35 1009.70 1009.94 1009.98 1009.96 1009.80
1004.50 1004.54 1004.59 1003.66 1003.12 1003.23 1002.69 1002.08 1001.99 1001.67 1001.14 1000.80 1000.33 1000.15 1000.99 1001.34 1002.06 1002.70 1003.18 1003.68 1004.29 1005.55 1006.67 1007.20 1007.73 1008.39 1008.90 1009.10 1009.38 1009.55 1009.58 1009.50
1004.76 1004.67 1004.39 1003.55 1002.72 1002.68 1002.30 1001.79 1001.66 1000.98 1000.38 1000.03 999.91 1000.34 1001.16 1001.67 1002.37 1003.21 1003.44 1004.20 1004.94 1005.62 1006.54 1007.19 1007.50 1008.21 1008.51 1008.82 1009.10 1009.25 1009.29 1009.24
1004.50 1004.48 1004.33 1003.81 1002.39 1002.06 1001.50 1001.29 1000.89 1000.21 999.94 999.48 999.73 999.95 1001.01 1001.74 1002.46 1003.28 1003.94 1004.55 1005.06 1005.79 1006.53 1007.07 1007.67 1008.25 1008.61 1008.94 1009.07 1008.95 1008.90 1008.91
1004.74 1004.94 1003.59 1003.92 1001.41 1001.45 1000.97 1000.36 999.81 998.93 999.09 998.89 999.34 1000.04 1000.93 1001.70 1002.58 1003.30 1004.08 1004.64 1005.33 1005.90 1006.45 1007.21 1007.81 1007.99 1008.24 1008.48 1008.51 1008.70 1008.79 1008.99
Wind_Speed
2 3 7 3 7 4 4 10 4 3 3 4 5 4 3 3 17 12 17 17 19 24 22 21 20 19 18 17 16 15 15 14
4 10 6 5 4 4 10 2 3 2 7 3 4 4 4 9 17 14 17 17 19 24 23 21 20 19 19 18 17 16 16 15
5 7 7 9 13 6 7 5 5 2 3 5 3 4 6 11 15 16 16 16 17 22 22 21 20 19 18 17 16 16 16 15
8 9 8 8 10 4 6 2 3 4 3 5 2 5 7 11 16 14 16 17 15 21 22 21 20 19 17 16 16 16 14 14
7 9 8 7 1 5 5 1 2 1 4 4 5 5 3 9 13 12 13 15 14 17 19 20 19 18 17 16 15 14 13 13
6 7 9 5 5 3 1 1 2 4 3 7 8 2 6 8 11 11 12 14 15 15 16 16 15 16 16 15 14 13 13 13
9 9 8 1 3 1 2 7 5 6 11 6 3 2 6 9 12 11 12 14 14 15 15 15 13 13 14 15 14 12 13 12
14 12 11 3 6 6 6 11 20 15 13 9 5 7 10 15 17 18 17 17 15 14 13 12 9 10 11 10 9 9 8 9
20 15 8 14 12 10 13 19 20 17 19 18 13 12 13 17 20 22 18 13 15 13 12 13 10 8 5 5 5 5 8 7
25 17 14 20 15 16 18 27 24 21 18 19 19 16 15 18 20 19 18 15 14 15 13 12 7 7 7 6 5 5 6 8
20 22 20 19 22 22 23 28 22 20 19 19 18 17 17 19 19 18 19 15 14 14 13 12 10 7 6 6 6 6 6 7
20 18 20 20 27 15 22 24 20 19 21 22 20 21 18 14 19 18 16 15 14 15 13 12 10 9 6 6 5 5 5 6
13 18 14 12 23 23 27 23 18 20 21 21 22 19 17 18 18 19 15 14 16 14 14 13 12 9 6 5 5 5 6 8
13 19 12 12 24 16 17 13 15 17 17 17 20 19 18 18 16 12 12 16 15 14 15 14 11 8 6 5 4 5 7 7
14 10 4 16 21 11 11 11 15 19 20 19 20 21 17 15 14 12 16 17 17 16 16 15 11 7 5 5 5 6 6 7
12 10 18 21 25 17 16 15 17 20 20 19 19 24 16 11 9 13 16 16 18 16 17 14 9 5 4 3 6 6 6 6
18 14 13 19 21 14 15 20 20 20 20 19 19 17 7 3 5 11 14 16 17 17 14 11 8 6 4 4 5 5 5 6
15 12 10 15 23 16 14 19 21 22 21 20 19 11 2 3 6 10 13 14 17 16 14 10 7 4 2 3 3 3 3 4
21 9 11 11 22 17 21 14 15 20 18 18 16 9 4 8 9 10 12 16 16 15 13 9 7 5 3 2 3 3 1 0
21 11 15 3 18 13 19 22 21 21 15 15 10 3 7 9 11 13 14 15 14 13 12 9 8 5 4 2 2 0 1 1
Wind_Direction
234 217 224 208 200 221 306 301 244 258 250 172 212 206 249 202 167 166 171 174 182 183 188 190 192 190 192 194 197 198 206 213
241 238 251 251 187 289 317 116 178 247 263 235 253 180 202 153 166 170 178 180 183 185 188 192 195 195 194 195 199 203 212 219
246 247 250 238 266 258 289 303 304 209 267 262 247 214 166 164 176 181 180 186 188 190 189 192 197 199 198 199 203 208 214 222
243 241 252 260 246 229 249 216 291 184 257 258 342 227 191 175 189 191 182 186 191 193 191 192 196 199 199 202 208 212 217 226
275 275 265 245 194 201 168 248 143 153 261 284 322 276 237 208 193 195 190 188 189 195 197 195 196 197 197 203 211 215 220 230
236 272 277 201 182 148 185 39 28 195 245 301 328 20 185 217 209 203 197 198 195 196 196 200 202 200 196 202 209 215 220 233
241 225 243 258 190 59 346 298 262 254 269 300 326 153 197 207 218 216 209 205 200 198 197 197 200 202 201 208 213 216 225 228
232 232 264 274 294 311 281 286 279 281 271 271 273 256 239 217 219 215 214 205 200 200 201 197 193 200 203 214 221 221 222 223
258 247 251 283 277 297 290 283 279 291 297 303 286 269 239 242 234 224 219 216 200 191 189 197 193 191 199 208 210 215 221 221
251 260 271 271 299 277 280 270 278 288 285 283 287 278 245 245 240 228 219 218 200 189 184 188 192 184 193 204 207 217 219 222
251 265 265 278 272 271 284 276 278 281 281 270 272 265 258 246 250 238 224 209 196 189 181 175 179 185 195 204 212 218 222 228
246 257 261 266 268 273 266 270 285 284 277 279 270 267 270 248 244 229 221 199 180 190 177 169 177 184 192 206 209 218 231 235
233 240 252 272 265 246 256 271 273 275 279 280 276 275 253 248 235 227 216 184 172 178 178 173 177 186 194 201 213 223 236 235
228 232 241 227 265 268 262 271 285 283 281 282 280 277 271 256 240 226 186 178 165 174 178 172 173 183 191 198 219 239 243 244
230 189 169 199 265 254 272 283 281 281 286 286 285 283 267 263 251 190 177 169 169 167 175 172 170 172 184 202 231 241 245 243
225 212 234 240 254 275 280 286 284 286 287 283 277 271 290 274 214 183 175 167 162 165 164 166 155 158 177 218 244 242 242 241
231 219 244 253 265 270 287 295 287 286 282 275 270 285 302 299 189 175 172 170 164 151 158 155 152 165 194 223 230 232 237 250
247 245 254 274 274 286 286 276 280 280 279 271 278 272 281 123 159 183 169 161 155 152 155 163 152 156 170 203 228 271 271 269
247 265 256 285 276 277 279 277 278 275 269 269 267 279 175 147 160 163 157 155 149 152 154 155 148 145 146 200 226 235 231 330
246 245 257 224 283 266 284 288 280 279 274 272 276 205 160 149 153 153 156 150 145 146 148 153 161 156 178 204 252 228 300 313